Location: Complexul Astronomic Baia Mare
(47.6577°N, 23.5639°E)
Time: 06:49:43
(UTC+03:00)

ISS - Pass Details

Date: 25 May 2017
Orbit: 402 x 408 km, 51.6° (Epoch: 29 May)

Event Time Altitude Azimuth Distance (km) Brightness Sun altitude
Rises 02:06:16 0° 287° (WNW) 2,332 0.1 -20.7°
Reaches altitude 10° 02:08:25 10° 295° (WNW) 1,470 -0.9 -20.6°
Maximum altitude 02:11:35 43° 8° (N) 588 -2.6 -20.5°
Drops below altitude 10° 02:14:44 10° 82° (E) 1,464 -0.8 -20.4°
Sets 02:16:52 0° 89° (E) 2,322 0.2 -20.3°
